Regional Weather Roundup
Issued by NWS

Home | Current Version | Previous Version | Text Only | Print | Product List | Glossary On
Versions: 1 2 3 4 5 6 7 8 9 10 11 12 13 14 15 16 17 18 19 20 21 22 23 24 25 26 27 28 29 30 31 32 33 34 35 36 37 38 39 40 41 42 43 44 45 46 47 48 49 50
000
ASUS43 KMKX 191721
RWRWI

WISCONSIN REGIONAL WEATHER ROUNDUP
NATIONAL WEATHER SERVICE MILWAUKEE/SULLIVAN WI
1100 AM CST FRI DEC 19 2014

NOTE: "FAIR" INDICATES FEW OR NO CLOUDS BELOW 12,000 FEET WITH NO
SIGNIFICANT WEATHER AND/OR OBSTRUCTIONS TO VISIBILITY.

WIZ001-002-006>008-014>016-023>028-191800-
NORTHWEST WISCONSIN

CITY           SKY/WX    TMP DP  RH WIND       PRES   REMARKS
SUPERIOR ARPT  FLURRIES  25  21  85 SW3       30.26F
ASHLAND        CLOUDY    23  19  85 S5        30.27F WCI  17
HAYWARD        CLOUDY    23  19  85 S7        30.24F FOG     WCI  15
SIREN          LGT SNOW  25  20  82 S6        30.25F WCI  18
CUMBERLAND     LGT SNOW  23  19  86 S8        30.23F WCI  14
RICE LAKE      CLOUDY    25  20  83 SE9       30.26F WCI  15
CHETEK         LGT SNOW  24  21  87 SE6       30.25F WCI  17
LADYSMITH      CLOUDY    24  22  93 S5        30.26F WCI  18
EAU CLAIRE     CLOUDY    25  18  74 SE7       30.26F WCI  17
MENOMONIE      CLOUDY    27  20  76 SE7       30.26F WCI  19
NEW RICHMOND   CLOUDY    25  21  86 SE7       30.25F WCI  17
OSCEOLA        CLOUDY    25  21  83 SE6       30.28F WCI  18
$$

WIZ003>005-009-010-017-018-191800-
NORTH CENTRAL WISCONSIN

CITY           SKY/WX    TMP DP  RH WIND       PRES   REMARKS
MANITOWISH WTR CLOUDY    20  19  98 S7        30.22F WCI  11
ARBOR VITAE    CLOUDY    22  19  91 S3        30.22F
WOODRUFF       CLOUDY    22  19  91 S3        30.22F
RHINELANDER    MOSUNNY   16  15  96 E3        30.23F FOG
EAGLE RIVER    CLOUDY    14  11  87 CALM      30.23F FOG
LAND O LAKES   CLOUDY    15  13  92 CALM      30.24F FOG
PHILLIPS       CLOUDY    22  19  89 S8        30.22F WCI  12
TOMAHAWK       CLOUDY    21  19  93 CALM      30.24F
MEDFORD        CLOUDY    22  19  87 S3        30.24F
MERRILL        CLOUDY    23  19  87 CALM      30.25F
$$

WIZ029-030-035-036-043>047-191800-
CENTRAL WISCONSIN

CITY           SKY/WX    TMP DP  RH WIND       PRES   REMARKS
WAUSAU         MOSUNNY   23  19  85 E3        30.25F
MOSINEE        NOT AVBL
MARSHFIELD     CLOUDY    24  20  84 S5        30.26F WCI  18
STEVENS POINT  CLOUDY    23  18  82 CALM      30.28F
WAUPACA        MOSUNNY   30  22  72 CALM      30.29F
WAUTOMA        PTSUNNY   27  18  69 CALM      30.30F
WISC RAPIDS    CLOUDY    25  18  74 S5        30.29F WCI  19
CAMP DOUGLAS   CLOUDY    25  25 100 NE1       30.29F
$$

WIZ011>013-019>022-031-037>040-048>050-191800-
NORTHEAST WISCONSIN

CITY           SKY/WX    TMP DP  RH WIND       PRES   REMARKS
ANTIGO         SUNNY     21  18  88 CALM      30.25F
SHAWANO        SUNNY     27  21  78 CALM      30.29F
OCONTO         SUNNY     26  22  82 CALM      30.30F
STURGEON BAY   PTSUNNY   27  21  80 N3        30.30F
GREEN BAY      SUNNY     27  22  81 CALM      30.30F
MANITOWOC      SUNNY     33  23  66 N5        30.29F WCI  29
APPLETON       MOSUNNY   27  21  80 CALM      30.29F
CLINTONVILLE   SUNNY     27  21  80 CALM      30.29F
OSHKOSH        SUNNY     26  20  77 CALM      30.29F
$$

WIZ032>034-041-042-053>061-191800-
SOUTHWEST WISCONSIN

CITY           SKY/WX    TMP DP  RH WIND       PRES   REMARKS
LA CROSSE      CLOUDY    28  18  66 SE3       30.30F
SPARTA         PTSUNNY   26  18  70 CALM      30.30F
VIROQUA        CLOUDY    26  20  78 CALM      30.26F
BOSCOBEL       CLOUDY    28  18  66 CALM      30.32S
PRAIRIE DU CHI CLOUDY    28  19  71 SE5       30.32S WCI  22
PLATTEVILLE    CLOUDY    26  20  77 CALM      30.31F
$$

WIZ056-057-062-063-064-067-068-191800-
SOUTH CENTRAL WISCONSIN

CITY           SKY/WX    TMP DP  RH WIND       PRES   REMARKS
REEDSBURG      CLOUDY    24  20  85 E3        30.29F
BARABOO/DELLS  CLOUDY    24  20  85 CALM      30.29S
LONE ROCK      CLOUDY    30  18  60 CALM      30.32R
MINERAL POINT  CLOUDY    28  21  74 CALM      30.29S
MADISON        CLOUDY    26  20  77 S6        30.30S WCI  19
MIDDLETON      CLOUDY    26  21  79 CALM      30.31R
WATERTOWN      CLOUDY    27  18  70 CALM      30.30S
MONROE         CLOUDY    27  23  86 CALM      30.29S
JANESVILLE     CLOUDY    28  21  74 CALM      30.31S
$$

WIZ051-052-058>065-066-070>072-191800-
SOUTHEAST WISCONSIN

CITY           SKY/WX    TMP DP  RH WIND       PRES   REMARKS
MILWAUKEE      PTSUNNY   29  18  63 W7        30.30S WCI  22
WAUKESHA       PTSUNNY   27  18  69 W6        30.30F WCI  20
MILWAUKEE/TIMM PTSUNNY   28  18  64 W3        30.31S
RACINE         CLOUDY    29  18  63 NW6       30.31F WCI  23
BURLINGTON     CLOUDY    26  17  67 N3        30.30F
KENOSHA        CLOUDY    29  19  66 NW5       30.30F WCI  24
FOND DU LAC    SUNNY     28  21  75 NW3       30.29F
SHEBOYGAN      CLOUDY    29  20  69 NW8       30.28F WCI  21
WEST BEND      CLOUDY    28  21  74 W5        30.28F WCI  23
JUNEAU         CLOUDY    27  18  70 CALM      30.30S
$$

LSZ147-162-191800-
LAKE SUPERIOR

STATION/POSITION TIME  TEMP    WIND        PRES    WAVE
                       AIR SEA DIR/SP/G            HT/PER
                 (UTC) (F)     (DEG/KT/KT) (MB)    (FT/S)
DEVILS ISLAND    1700   24     200/  6/  8 1026.2F
PORT WING        1640   24     170/  6/  7 1025.1F
SAXON HARBOR     1600   24        CALM     1025.7R
$$

LMZ867-665-643>646-191800-
LAKE MICHIGAN

STATION/POSITION TIME  TEMP    WIND        PRES    WAVE
                       AIR SEA DIR/SP/G            HT/PER
                 (UTC) (F)     (DEG/KT/KT) (MB)    (FT/S)
CHAMBERS ISLAND  1600   34     320/  4/  5 1026.8S
NORTHPORT PIER   1620   28     350/  5/  7 1026.4S
SISTER BAY       1613          360/  7/  8   N/A
ALGOMA LAKESHORE 1644          330/  6/  8   N/A
KEWAUNEE LAKESHO 1700   29     350/  4/  6 1024.9F
SHEBOYGAN LAKESH 1700   29 34  320/  9/ 10 1026.7F
PORT WASHINGTON  1640   29     280/  6/  8 1026.4F
MILWAUKEE LAKESH 1700   29     270/  5/  7   N/A
KENOSHA   LAKESH 1700   28     280/  6/  8 1026.1F
$$

TC  - TEMPERATURE IN CELSIUS
VSB - VISIBILITY IN STATUTE MILES
WCI - WIND CHILL INDEX
HX  - HEAT INDEX



USA.gov is the U.S. government's official web portal to all federal, state and local government web resources and services.